Regional Weather Roundup
Issued by NWS Cleveland, OH

Home | Current Version | Previous Version | Graphics & Text | Print | Product List | Glossary On
Versions: 1 2 3 4 5 6 7 8 9 10 11 12 13 14 15 16 17 18 19 20 21 22 23 24 25 26 27 28 29 30 31 32 33 34 35 36 37 38 39 40 41 42 43 44 45 46 47 48 49 50
000
ASUS41 KCLE 020110
RWRCLE
OHIO REGIONAL WEATHER ROUNDUP
NATIONAL WEATHER SERVICE WILMINGTON, OH
900 PM EDT MON JUN 01 2015

NOTE: "FAIR" INDICATES FEW OR NO CLOUDS BELOW 12,000 FEET WITH NO
SIGNIFICANT WEATHER AND/OR OBSTRUCTIONS TO VISIBILITY.

OHZ001>008-015>018-024>027-034-035-043-044-020200-
   NORTHWEST OHIO

CITY           SKY/WX    TMP DP  RH WIND       PRES   REMARKS
DEFIANCE       CLOUDY    58  47  66 E5        30.19R
FINDLAY        CLOUDY    55  46  71 NE10      30.17S
TOLEDO EXPRESS CLOUDY    55  45  68 E8        30.19R
TOLEDO EXEC    CLOUDY    56  47  71 NE5       30.20S
LIMA           CLOUDY    53  48  83 NE6       30.18R
$$

OHZ009>014-019>023-028>033-038-089-020200-
   NORTHEAST OHIO

CITY           SKY/WX    TMP DP  RH WIND       PRES   REMARKS
CLE-HOPKINS    CLOUDY    53  46  77 E8        30.19S
CLE-LAKEFRONT  CLOUDY    54  46  74 E7        30.16F
CUY CO. ARPT   CLOUDY    52 N/A N/A NE9       30.18S
LORAIN-ELYRIA  CLOUDY    52  47  83 NE7       30.18S
ASHTABULA      CLOUDY    52  48  86 VRB5      30.18S
AKRON-CANTON   CLOUDY    53  46  77 NE10      30.14S
WOOSTER        CLOUDY    51  47  86 N7        30.16S
MANSFIELD      CLOUDY    50  47  89 N8        30.16S
YOUNGSTOWN     LGT RAIN  51  47  86 NE6       30.15S
$$

OHZ042-051>053-060>062-070>072-077>081-020200-
  SOUTHWEST OHIO

CITY           SKY/WX    TMP DP  RH WIND       PRES   REMARKS
CINC-COVINGTON CLOUDY    57  51  80 NE10      30.13S
CINC-LUNKEN    CLOUDY    57  52  83 NE10      30.14S
HAMILTON       CLOUDY    57  52  83 N10       30.15S
DAYTON         CLOUDY    55  50  83 NE13      30.17S
WRIGHT-PAT AFB MOCLDY    55  50  83 NE9       30.16R
DAYTON GENERAL CLOUDY    54  50  86 NE13      30.15R
WILMINGTON     CLOUDY    53  49  86 NE13      30.14R
$$

OHZ036-037-039>041-045>050-054>059-063>069-073>076-082>088-020200-
  CENTRAL AND SOUTHEAST OHIO

CITY           SKY/WX    TMP DP  RH WIND       PRES   REMARKS
COLUMBUS       CLOUDY    53  49  86 N8        30.14R
OSU AIRPORT    CLOUDY    53  48  83 N12       30.15R
BOLTON FIELD   NOT AVBL
RICKENBACK AFB CLOUDY    53  49  87 NE6       30.15R
NEWARK         CLOUDY    53  49  86 VRB5      30.14R
MARION         CLOUDY    52  47  83 N12       30.17R
LANCASTER      CLOUDY    54  50  86 N9        30.15R
ZANESVILLE     CLOUDY    53  49  86 N5        30.11S
NEW PHILLY     CLOUDY    54  48  80 NE5       30.14S
$$



USA.gov is the U.S. government's official web portal to all federal, state and local government web resources and services.